SCP
0 0 0 0 0 0 0 0 0 0 0 0 0 0 0 0 0 1 1 1 2 2 2 2 2 2 2 2 2 2 2 2 1 1 1 1 1 0 0 1 1 1 1 1
0 0 0 0 0 0 0 0 0 0 0 0 0 0 0 0 0 1 1 1 1 2 2 2 2 2 2 2 2 2 2 2 1 1 1 1 1 1 0 1 1 1 1 1
0 0 0 0 0 -0 0 0 0 0 0 0 0 0 0 0 0 0 1 1 1 1 2 2 2 2 2 2 2 2 2 2 2 1 1 1 1 1 1 1 1 1 1 1
0 0 0 0 0 -0 0 0 0 0 0 0 0 0 0 0 0 0 1 1 1 1 2 2 2 2 2 2 2 2 2 2 2 1 1 1 1 1 1 1 1 1 1 1
0 0 0 0 0 0 0 0 0 0 0 0 0 0 0 0 0 0 0 1 1 1 1 2 2 2 2 2 2 2 2 2 2 1 1 1 1 1 1 1 1 1 1 1
0 0 0 0 0 0 -0 -0 0 0 0 0 0 0 0 0 0 0 0 1 1 1 1 1 2 2 2 2 2 2 2 2 2 1 1 1 1 1 0 0 0 1 1 1
0 0 0 -0 0 0 -0 -0 -0 0 0 0 0 0 0 0 0 0 0 1 1 1 1 1 2 2 2 2 2 2 2 2 2 1 1 1 1 1 1 0 0 0 0 0
0 0 0 0 0 0 -0 -0 -0 0 0 0 0 0 0 0 0 0 0 0 1 1 1 1 1 2 2 2 2 2 2 2 2 1 1 1 1 1 1 0 0 0 0 0
0 0 0 0 -0 0 0 -0 -0 0 0 0 0 0 0 0 0 0 0 0 1 1 1 1 1 1 2 2 2 2 2 2 1 1 1 1 1 1 0 0 0 0 0 0
0 0 0 0 0 0 0 0 0 0 0 0 0 0 0 0 0 0 0 0 1 1 1 1 1 1 1 2 2 2 2 2 1 1 1 1 1 1 0 0 0 0 0 0
0 0 0 0 0 0 0 0 0 0 0 0 0 0 0 0 0 0 0 0 1 1 1 1 1 1 1 1 2 2 2 2 1 1 1 1 1 1 0 0 0 0 0 0
0 0 0 0 0 0 0 0 0 0 0 0 0 0 0 0 0 0 0 1 1 1 1 1 1 1 1 1 2 2 2 1 1 1 1 1 1 1 0 0 0 0 0 0
0 0 0 0 0 0 0 0 0 0 0 0 0 0 0 0 0 0 0 1 1 1 1 1 2 2 2 2 2 2 1 1 1 1 1 1 1 1 1 1 0 0 0 0
0 0 0 0 0 0 0 0 0 0 0 0 0 0 0 0 0 0 0 1 1 1 1 2 2 2 2 2 2 2 1 1 1 1 1 1 1 1 1 1 1 1 0 0
0 0 0 0 0 0 0 0 0 0 0 0 0 0 0 0 0 0 1 1 1 1 2 2 2 3 3 3 2 2 2 2 1 1 1 1 1 1 1 1 1 1 1 1
0 0 0 0 0 0 0 0 0 0 0 0 0 0 0 0 0 1 1 1 1 1 2 2 3 3 3 3 3 2 2 2 2 2 2 2 1 1 1 1 1 1 1 1
0 0 0 0 0 0 0 0 0 0 0 0 0 0 0 1 1 1 1 1 1 1 2 2 3 3 3 3 3 3 2 2 2 2 2 2 1 1 1 1 1 1 1 1
0 0 0 0 0 0 0 0 0 0 0 0 0 0 0 1 1 1 1 2 2 2 2 3 3 4 4 3 3 3 3 2 2 2 2 2 2 1 1 1 1 1 1 1
0 0 0 0 0 0 0 0 0 0 0 0 0 0 1 1 1 2 2 2 3 3 3 3 4 4 4 4 4 3 3 3 2 2 2 2 2 1 1 1 1 1 1 1
0 0 0 0 0 0 0 0 0 0 0 0 0 1 1 1 2 2 2 3 3 4 4 4 4 4 4 4 4 4 3 3 3 2 2 2 2 2 1 1 1 1 1 1
0 0 0 0 0 0 0 0 0 1 1 1 1 2 2 2 3 3 3 3 3 4 4 5 5 5 5 4 4 4 3 3 3 3 2 2 2 2 1 1 1 1 1 1
0 0 0 0 0 0 1 1 1 1 2 2 2 2 3 3 3 3 3 3 3 4 4 4 5 5 4 4 4 4 3 3 3 3 2 2 2 2 1 1 1 1 1 1
0 0 0 0 0 1 1 1 2 2 2 2 2 3 3 3 3 3 3 3 3 4 4 4 4 4 4 4 3 3 3 3 3 3 2 2 2 2 1 1 1 1 1 1
0 0 0 1 1 1 1 2 2 2 2 2 2 2 3 3 3 3 3 3 3 4 4 4 4 4 4 3 3 3 3 3 3 2 2 2 2 1 1 1 1 1 1 1
0 0 1 1 1 1 1 1 2 2 2 2 2 2 2 3 3 3 3 3 3 3 3 3 3 3 3 3 2 2 2 2 2 2 2 1 1 1 1 1 1 0 0 0
0 0 1 1 1 1 1 1 1 2 1 2 2 2 2 2 3 3 3 3 3 3 3 3 3 3 2 2 2 2 2 2 2 1 1 1 1 1 1 1 0 0 0 0
Wind_Speed
9 10 11 10 8 8 10 11 7 3 3 4 4 2 4 5 5 8 10 11 11 11 12 11 11 11 11 10 9 9 9 8 6 5 5 4 3 3 2 3 4 4 4 4
10 13 12 7 5 6 8 9 9 3 1 4 6 4 2 3 5 7 10 11 12 11 12 12 11 11 11 10 9 9 9 9 8 6 4 3 3 3 3 2 4 4 4 4
15 8 3 5 6 7 9 9 9 8 4 7 8 6 4 5 6 7 8 10 12 12 12 12 12 12 11 11 10 9 9 9 8 7 5 3 2 2 3 3 3 5 5 5
13 12 4 6 9 9 9 8 8 9 9 8 9 4 5 8 8 9 9 9 10 12 13 13 12 12 11 11 10 8 8 8 7 7 6 7 5 5 5 3 4 4 5 5
12 11 9 9 11 10 10 7 7 9 10 11 11 7 3 8 8 8 9 9 10 11 12 13 12 11 11 10 10 9 8 8 7 7 7 6 5 4 3 3 4 4 4 5
15 11 10 11 11 9 8 8 9 10 10 11 10 7 2 3 5 6 8 8 8 10 11 10 11 10 9 9 9 9 8 8 8 8 7 7 6 5 4 4 4 4 3 4
15 15 10 9 11 11 9 8 7 8 8 6 6 6 2 6 6 5 6 8 9 9 10 9 10 11 10 10 9 9 9 8 8 7 7 6 5 5 5 4 4 4 4 4
16 15 16 13 13 11 12 13 10 8 6 2 6 5 5 8 7 5 6 9 9 10 10 10 10 10 10 10 9 9 9 8 7 7 6 5 5 4 4 5 4 5 4 4
13 16 18 17 14 15 13 12 14 14 14 11 6 3 8 9 8 6 6 9 9 10 11 11 11 11 10 10 9 9 8 7 7 6 5 5 5 4 4 4 4 4 4 4
18 13 10 15 12 15 16 12 8 9 9 11 10 5 2 7 7 7 7 7 9 10 10 11 10 10 10 10 9 9 8 7 6 6 5 5 4 4 3 3 4 3 3 3
19 15 12 11 13 13 14 14 11 8 9 10 8 2 4 7 7 7 7 8 9 10 11 10 10 10 10 10 10 9 8 7 6 6 5 4 4 4 4 3 3 3 3 3
16 13 13 13 13 13 14 15 13 9 8 9 9 2 8 7 7 7 8 8 8 7 9 9 10 10 9 10 10 9 8 7 6 6 5 4 3 4 4 3 3 3 3 3
11 10 12 14 13 15 14 14 14 13 10 10 10 2 6 3 5 6 8 9 8 8 9 10 9 10 9 8 8 8 8 7 7 6 5 5 4 3 3 3 2 3 3 3
5 10 14 16 13 13 16 16 15 15 12 12 12 7 5 6 5 7 7 8 8 8 8 9 8 8 7 7 7 7 7 7 7 6 6 5 4 3 3 3 2 2 2 2
7 12 15 17 19 16 13 16 17 17 15 14 10 8 6 5 6 7 8 8 9 9 9 8 8 7 7 7 7 6 6 6 6 6 6 5 4 3 3 2 2 2 2 2
9 10 13 17 19 19 16 15 16 17 16 16 15 11 4 3 5 7 7 7 7 7 8 8 8 9 8 7 7 6 6 5 5 5 5 5 4 3 3 2 2 2 2 2
10 8 11 14 16 18 19 16 14 13 14 14 13 9 6 3 4 5 6 6 6 6 6 6 7 7 7 7 7 7 6 6 5 5 4 4 4 4 3 3 3 2 2 2
4 6 8 13 14 19 14 14 15 14 13 11 8 6 3 5 6 5 4 4 4 5 6 5 6 6 6 7 7 6 7 6 6 5 5 4 4 4 4 3 3 2 2 2
7 5 8 11 15 17 15 13 12 13 12 10 8 7 6 7 8 6 5 5 4 4 5 4 5 6 5 6 7 7 7 6 6 6 5 5 4 4 4 3 3 2 2 2
12 8 9 11 14 15 11 10 10 11 9 8 6 5 5 6 5 5 7 8 7 6 5 4 5 6 5 5 5 6 6 6 5 5 4 4 4 4 4 3 3 2 2 2
17 14 14 15 16 13 9 7 5 8 2 5 4 4 4 5 6 8 8 8 7 7 7 6 6 5 4 4 4 4 4 4 4 3 3 3 3 3 3 3 2 2 2 2
17 17 15 14 17 13 7 5 2 4 7 8 8 9 10 10 9 9 9 8 8 7 6 6 6 5 5 4 4 3 2 2 3 4 3 3 3 3 3 3 3 2 2 2
13 11 9 10 9 1 3 4 5 5 6 6 5 7 7 8 8 8 8 7 7 6 5 5 6 6 5 4 3 3 3 3 3 3 3 3 2 2 3 3 2 2 2 2
7 5 6 4 3 3 2 3 4 6 6 5 5 5 6 7 7 7 6 6 6 6 5 5 6 6 5 4 4 4 3 3 2 3 2 2 2 2 2 1 1 1 1 2
6 4 5 5 1 2 3 5 6 5 5 4 5 6 6 6 6 6 5 6 6 5 5 5 5 6 5 5 5 4 3 3 2 2 1 2 2 2 2 2 3 3 4 2
4 5 4 2 2 1 2 4 4 3 3 3 4 5 5 4 4 5 5 6 5 5 5 5 5 5 4 4 4 4 3 2 2 1 1 1 1 2 2 3 3 8 6 6
Wind_Direction
224 238 245 245 244 289 317 322 326 18 55 321 299 254 175 158 170 157 158 159 162 168 166 162 164 165 167 167 170 172 178 170 167 171 178 184 195 206 204 189 171 183 194 175
238 235 251 279 312 304 290 289 292 295 71 299 291 282 212 162 167 164 165 164 167 166 163 162 169 173 172 172 176 175 179 175 178 178 173 177 184 207 212 196 172 193 197 191
238 246 227 259 265 263 266 273 292 311 311 273 267 250 177 181 180 164 165 169 166 164 165 169 176 178 175 177 181 182 180 178 183 173 170 179 181 224 212 188 184 201 197 201
242 249 241 250 252 254 260 266 287 298 295 293 286 271 182 182 178 163 168 173 163 164 166 170 175 178 178 178 178 174 173 176 177 178 186 188 196 210 212 197 189 198 205 203
237 235 231 238 249 253 270 310 304 286 281 281 282 283 172 169 169 169 173 170 159 165 165 169 172 172 175 174 171 173 171 173 177 186 190 195 210 218 215 209 196 198 205 207
253 246 228 236 243 251 271 280 274 265 266 263 265 272 221 146 160 158 155 146 147 153 158 159 160 159 165 167 167 167 167 172 179 188 194 201 213 217 212 212 205 202 209 208
238 245 234 234 245 228 235 249 255 244 234 254 265 259 149 123 116 137 149 148 150 154 150 155 160 162 165 167 165 164 164 172 181 187 194 202 216 218 216 215 215 215 218 206
219 227 220 216 233 234 217 239 255 278 292 268 221 235 130 119 115 123 153 149 155 157 149 159 166 161 163 165 165 163 164 171 178 185 191 195 206 218 219 217 220 217 221 217
235 223 211 204 213 240 237 229 255 272 282 283 246 184 138 136 139 148 150 146 160 153 150 161 162 159 161 163 163 161 159 167 178 183 183 191 199 213 225 225 221 224 217 218
258 275 228 190 201 222 246 254 256 261 278 283 283 283 166 142 144 146 154 153 153 151 157 160 153 155 159 160 157 154 159 167 173 174 186 190 192 203 218 232 229 228 222 225
237 257 256 202 200 222 221 241 259 276 274 275 283 358 109 149 153 155 152 150 154 164 162 154 152 153 157 156 157 158 160 165 172 176 184 184 184 191 201 216 224 220 210 199
218 238 251 239 207 221 234 228 232 244 263 276 281 256 143 159 148 149 143 143 153 161 149 151 152 154 160 158 158 159 165 168 171 170 173 177 179 182 200 208 207 203 200 203
212 229 238 247 224 205 229 232 230 236 250 261 267 261 128 145 141 141 140 146 149 151 152 152 156 160 163 157 157 159 167 167 167 168 171 173 183 186 193 197 186 186 196 206
247 230 236 239 235 213 213 228 233 235 239 243 249 237 199 193 162 147 140 143 144 146 150 149 154 153 151 149 153 160 168 163 167 168 168 168 177 181 176 173 170 180 193 198
248 235 240 256 267 267 239 223 225 232 243 255 260 257 244 188 163 143 144 148 148 149 154 152 152 149 149 152 158 164 164 160 164 165 165 166 168 163 158 161 170 174 195 204
225 252 248 248 256 263 259 245 228 226 231 242 254 258 258 155 148 143 151 154 153 157 160 159 158 158 158 161 168 165 163 156 158 161 160 155 159 157 158 160 173 172 182 186
210 224 252 254 247 250 248 249 251 241 231 235 244 249 244 184 150 144 146 153 157 159 158 164 158 156 160 166 165 165 162 159 163 160 160 160 160 160 160 170 172 167 168 165
256 231 240 253 256 250 249 248 247 249 248 240 233 232 197 125 116 111 123 146 155 161 152 149 147 147 156 161 162 160 160 163 167 168 167 165 170 170 164 164 158 151 150 155
245 251 252 249 249 248 253 251 247 245 242 243 236 222 192 153 140 112 96 102 102 110 116 129 142 142 145 156 157 160 164 165 170 172 171 171 173 169 166 166 154 150 155 158
234 225 242 251 253 251 250 257 264 252 236 243 237 225 202 178 178 112 92 86 79 76 86 97 116 121 130 137 150 162 166 168 173 170 165 164 165 168 171 168 163 161 163 171
216 216 225 243 253 258 283 300 285 251 251 14 21 53 70 72 82 100 96 89 85 84 86 83 90 95 101 114 136 157 162 168 163 151 150 157 163 165 166 160 156 158 166 165
213 214 217 231 245 248 311 280 286 55 52 41 38 61 73 82 88 95 94 93 92 88 87 93 89 88 87 95 120 129 121 118 128 136 145 150 150 165 154 148 150 157 171 176
231 225 224 222 231 226 30 51 62 75 73 59 58 70 79 89 91 95 96 97 96 95 92 95 98 92 85 79 89 112 89 85 109 123 130 129 130 122 119 140 152 173 187 197
236 246 244 247 200 170 131 87 74 73 71 65 65 73 81 92 101 100 97 96 94 89 89 90 93 92 80 68 65 70 73 65 97 126 127 133 140 134 123 124 156 194 208 213
324 300 252 234 173 73 63 51 54 62 68 66 68 68 77 85 99 105 102 104 99 93 87 84 87 85 76 67 65 65 65 68 85 116 136 159 160 143 117 80 40 27 49 17
315 324 307 315 43 52 55 37 31 40 55 63 68 69 72 86 95 107 105 107 104 100 96 95 94 93 90 81 74 65 62 68 85 129 139 183 158 139 142 135 103 56 62 59